Regional Weather Roundup
Issued by NWS Albany, NY

Home | Current Version | Previous Version | Text Only | Print | Product List | Glossary On
Versions: 1 2 3 4 5 6 7 8 9 10 11 12 13 14 15 16 17 18 19 20 21 22 23 24 25 26 27 28 29 30 31 32 33 34 35 36 37 38 39 40 41 42 43 44 45 46 47 48 49 50
000
ASUS41 KALY 250110
RWRALY

NEW YORK STATE HOURLY WEATHER ROUNDUP
NATIONAL WEATHER SERVICE ALBANY NY
900 PM EDT SAT SEP 24 2016

NOTE: "FAIR" INDICATES FEW OR NO CLOUDS BELOW 12,000 FEET WITH NO
SIGNIFICANT WEATHER AND/OR NO OBSTRUCTIONS TO VISIBILITY.

NYZ032-033-038>043-046>054-057>066-NYZ062>081-082-084-250200-
EAST


CITY           SKY/WX    TMP DP  RH WIND       PRES   REMARKS
ALBANY         CLEAR     53  39  59 N5        30.16R
GLENS FALLS    CLEAR     49  39  68 W5        30.15R
POUGHKEEPSIE   CLEAR     52  44  74 CALM      30.14R
NEWBURGH       CLEAR     57  46  67 CALM      30.16R
MONTGOMERY     CLEAR     53  45  74 CALM      30.15R
WHITE PLAINS   CLEAR     57  43  59 N5        30.13R
ISLIP          PTCLDY    57  47  69 CALM      30.12R
NEW YORK CITY  PTCLDY    67  44  43 NE7       30.12R
CENTRAL PARK   CLEAR     63  43  48 NE5       30.15R
$$

NYZ005>009-017-018-044>046-055-056-250200-
CENTRAL


CITY           SKY/WX    TMP DP  RH WIND       PRES   REMARKS
FULTON         CLEAR     47  43  86 CALM      30.20S
SYRACUSE       CLEAR     51  41  68 W5        30.20R
ROME           CLEAR     48  43  82 CALM      30.21R
ELMIRA         CLEAR     53  41  63 NE6       30.21R
BINGHAMTON     CLEAR     50  39  66 NW6       30.20R
MONTICELLO     CLEAR     52  39  62 NW5       30.19R
$$

NYZ026>034-041>043-087-250200-
NORTH


CITY           SKY/WX    TMP DP  RH WIND       PRES   REMARKS
WATERTOWN      CLEAR     43  41  93 E3        30.20R
FORT DRUM      NOT AVBL
OGDENSBURG     FAIR      53  42  67 N7        30.20S
MASSENA        CLEAR     53  34  48 N8        30.21R
SARANAC LAKE   MOCLDY    41  37  86 CALM      30.17R
PLATTSBURGH    CLEAR     49  39  68 W5        30.16R
$$

NYZ001>004-010>016-019>021-085-250200-
WEST


CITY           SKY/WX    TMP DP  RH WIND       PRES   REMARKS
NIAGARA FALLS  CLEAR     54  40  59 CALM      30.22S
BUFFALO        CLEAR     56  39  53 CALM      30.22S
DUNKIRK        CLEAR     50  44  80 CALM      30.22S
JAMESTOWN      CLEAR     52  41  66 N5        30.22S
WELLSVILLE     CLEAR     51  42  71 N5        30.25R
ROCHESTER      CLEAR     50  44  80 SW3       30.23R
PENN YAN       CLEAR     45  39  79 CALM      30.23R
$$

             KEY
       WCI = WIND CHILL INDEX
       VSB = VISIBILITY
       HX  = HEAT INDEX
$$



USA.gov is the U.S. government's official web portal to all federal, state and local government web resources and services.